IRIDIUM 156

Last updated on Fri Sep 11 2026 00:03:06 GMT+0000 (Coordinated Universal Time)

1 43576U 18061H 26253.44432664 .00000123 00000+0 36852-4 0 9995 2 43576 86.3999 21.0679 0002187 91.3805 268.7641 14.34217104425596
UTC large
Height (km)
Speed (km/s)
/
Latitude / Longitude
Inclination (degrees)
Orbital Period (minutes)
Azimuth
Elevation
Range (km)
Doppler Factor

Next 0 passes for location: London (51.5072 / 0.1276)

No passes found over London.
IRIDIUM 156